Location: Huesca
(42.1318°N, 0.4078°W)
Time: 11:42:02
(UTC+01:00)

O/OREOS (USA 219) - Pass Details

Date: 16 November 2024
Orbit: 590 x 609 km, 72.0° (Epoch: 06 December)

Event Time Altitude Azimuth Distance (km) Brightness Sun altitude
Rises 20:15:17 0° 258° (WSW) 2,824 ? -28.9°
Reaches altitude 10° 20:19:20 10° 296° (WNW) 1,924 ? -29.6°
Maximum altitude 20:20:26 11° 310° (NW) 1,871 ? -29.8°
Drops below altitude 10° 20:21:32 10° 325° (NW) 1,926 ? -30.1°
Enters shadow 20:23:06 - 344° (NNW) 2,171 ? -30.3°
